Theta_e
352 353 348 351 350 352 347 346 344 347 344 345 345 343 345 347 349 347 345 344 344 342 342 343 343 338 332 333 334 333 335 336 334 333 334 330 324 326 336 327 326 335 336
352 353 347 350 351 347 346 346 346 345 344 343 345 345 345 345 344 343 344 345 343 343 344 343 344 340 334 333 333 332 331 331 335 335 333 334 324 323 333 335 321 326 335
351 348 351 350 352 346 342 341 342 345 343 345 344 345 343 345 343 345 345 346 346 345 344 344 343 344 341 337 335 334 334 334 331 334 334 335 331 328 336 330 318 318 327
344 347 354 352 347 346 345 344 345 343 344 345 349 342 344 347 347 349 350 348 345 344 343 344 344 345 344 343 339 336 337 337 335 331 333 334 331 333 333 334 325 333 331
345 345 353 352 346 345 348 346 347 347 345 346 350 348 346 349 346 350 351 351 346 344 345 344 344 345 345 345 343 340 338 338 338 336 331 333 334 334 332 333 333 331 331
347 346 353 348 345 351 349 346 349 350 351 349 347 348 344 347 348 352 352 353 349 343 343 346 345 345 344 345 345 344 343 341 341 340 339 333 331 334 335 333 333 333 333
349 348 353 350 348 349 347 347 349 349 351 349 350 348 350 350 348 349 351 350 349 352 349 349 347 349 346 342 343 344 345 344 344 343 342 339 339 329 331 333 334 333 333
346 349 346 352 342 351 347 348 350 351 350 351 351 350 350 350 351 348 349 348 349 352 347 348 346 346 345 345 338 339 340 341 342 342 342 342 342 337 329 331 331 333 332
344 348 347 349 346 347 352 350 350 351 352 353 351 352 350 351 351 350 351 350 349 348 347 347 345 340 338 342 342 341 340 340 339 338 337 338 342 341 337 333 332 332 332
349 345 347 350 343 348 347 351 353 351 349 352 352 352 347 351 350 351 349 350 349 347 346 346 346 343 345 342 339 338 333 329 327 329 333 336 337 339 342 343 339 332 330
346 345 348 350 347 350 346 347 351 349 351 352 350 350 350 348 345 347 350 348 346 347 348 346 347 346 344 342 337 333 331 329 325 319 317 326 334 336 340 342 339 337 331
347 348 351 352 338 345 349 348 350 349 351 345 348 348 346 346 344 343 346 349 349 347 346 347 347 345 342 341 335 333 330 328 323 317 317 319 323 331 335 337 341 342 336
352 350 349 350 353 328 340 341 343 347 342 343 339 345 344 342 340 340 341 345 347 347 343 346 342 343 343 341 336 332 332 328 318 314 314 318 319 320 326 333 336 339 340
354 352 346 349 350 347 331 329 347 344 334 337 330 335 340 340 339 338 337 341 344 345 343 345 342 340 339 334 334 331 329 328 317 313 316 317 318 317 317 320 326 333 336
356 351 351 349 349 350 347 343 349 334 332 330 333 328 336 336 334 333 333 335 337 341 343 343 340 338 337 336 334 329 327 323 315 312 314 316 316 316 315 315 315 322 332
349 351 351 352 351 350 350 346 348 342 330 335 336 324 324 331 326 324 327 330 335 337 338 343 340 336 336 335 329 326 326 318 317 311 314 315 316 315 315 314 313 314 322
343 345 348 350 351 351 350 348 346 345 335 334 335 329 328 330 328 326 324 319 329 333 334 340 336 334 336 329 326 326 322 320 321 312 312 315 316 316 316 315 315 314 313
341 343 345 347 348 351 351 350 348 342 340 334 333 337 337 331 319 316 315 314 320 320 330 337 333 333 330 327 325 320 318 317 318 318 313 315 317 318 318 317 316 316 315
341 342 342 343 345 348 351 352 350 342 340 338 336 340 339 327 317 320 315 314 313 312 315 328 331 329 328 326 324 319 316 315 318 317 316 318 315 315 314 316 317 318 316
343 342 342 342 343 345 353 353 352 343 341 342 339 341 338 328 316 318 316 314 313 315 320 328 327 326 325 322 322 319 320 321 319 318 318 318 318 318 316 316 317 318 318
347 347 345 345 346 355 355 352 350 344 340 342 342 341 339 330 321 323 323 320 316 314 322 323 323 323 322 322 320 320 319 321 323 321 321 322 322 322 323 321 320 317 318
343 345 348 350 353 358 349 349 345 341 339 338 341 339 337 335 327 319 315 314 317 315 317 322 322 322 325 319 319 320 320 322 322 325 321 321 322 323 322 322 322 317 317
348 350 352 357 353 353 351 348 338 336 336 338 338 339 340 335 327 316 316 316 318 312 311 318 323 322 322 322 322 321 324 324 322 321 320 319 320 322 322 322 320 319 318
350 354 355 354 354 354 345 338 336 338 335 337 335 342 341 330 325 317 319 320 320 311 311 319 322 323 323 324 321 323 323 320 322 324 322 320 320 322 323 323 321 318 318
359 359 355 353 353 350 340 342 338 332 338 333 332 341 340 332 322 319 323 329 324 322 312 312 313 316 315 316 318 322 322 321 319 320 322 321 320 321 322 322 321 321 318
362 358 358 354 353 349 342 340 335 335 334 332 332 340 340 334 324 321 328 329 322 322 320 316 315 316 316 316 316 317 320 320 320 320 323 320 318 320 320 322 321 320 319
Wind_Speed
3 4 5 4 7 8 9 9 7 8 8 6 7 8 6 8 4 4 3 5 6 7 9 9 4 20 18 13 10 9 9 10 10 11 11 9 10 14 13 12 16 14 15
4 6 7 9 9 8 12 13 13 11 9 9 7 6 7 6 4 3 5 7 5 6 5 4 6 12 19 17 12 10 10 11 12 12 12 10 10 14 14 13 15 17 16
5 4 7 6 8 10 13 14 15 13 9 9 6 5 3 4 4 3 1 3 2 4 1 1 4 4 12 17 16 15 13 13 13 14 14 13 13 14 14 13 14 17 17
6 7 6 7 11 12 13 11 8 8 10 9 6 6 4 5 5 4 5 1 4 5 2 4 3 2 4 10 15 17 17 15 18 17 16 15 15 17 16 16 15 15 16
8 8 6 8 11 11 9 3 3 5 6 7 7 3 6 4 4 4 6 5 4 4 3 3 3 6 7 10 13 16 17 18 17 19 19 19 19 18 18 18 18 19 18
9 8 6 8 8 7 4 4 5 6 6 7 6 5 3 3 4 5 5 5 5 4 3 3 0 2 3 5 10 13 16 17 14 15 17 25 25 24 22 21 21 20 20
9 7 4 6 6 5 1 6 5 5 4 5 5 4 4 3 2 3 3 3 4 6 5 5 3 2 1 1 4 7 11 16 16 18 21 19 20 27 26 25 24 23 23
8 7 4 4 4 2 3 3 5 3 3 3 2 3 4 5 3 4 5 3 4 5 4 4 3 4 5 3 3 0 2 5 7 9 15 20 25 32 32 27 27 26 25
7 4 5 3 3 2 0 2 1 3 1 1 5 1 1 2 6 4 6 5 5 6 3 4 4 3 2 3 4 1 1 1 2 5 9 10 7 16 33 31 30 29 28
7 3 3 4 2 1 2 1 2 1 2 1 1 2 2 3 3 4 5 5 6 4 4 2 3 4 4 3 2 0 1 2 3 5 7 7 5 7 24 27 33 32 31
5 2 2 3 1 1 2 1 1 1 2 1 2 1 1 0 4 2 7 5 5 7 5 5 5 3 4 4 1 1 2 4 5 6 6 7 6 7 10 17 28 34 34
3 3 2 2 2 2 1 1 2 2 2 3 3 4 2 3 3 2 2 5 6 7 7 5 4 3 2 2 3 2 4 6 7 7 6 7 6 6 8 7 10 17 34
4 5 3 2 1 1 3 3 2 4 3 3 4 3 4 3 3 4 4 6 6 8 7 7 7 5 4 3 3 4 6 9 9 8 7 7 7 5 4 7 8 9 22
6 7 3 3 3 2 2 2 2 2 4 3 5 6 4 4 3 4 5 6 6 5 11 8 8 8 6 5 6 5 8 12 11 8 6 5 6 6 5 5 4 5 9
9 9 7 6 6 5 4 4 3 3 3 3 5 6 4 5 6 6 5 7 10 9 9 11 6 9 11 9 7 4 6 12 11 8 5 5 6 6 6 5 4 2 4
15 14 11 9 9 9 8 5 4 5 5 4 3 6 6 5 6 7 5 6 7 9 8 6 9 9 10 9 7 3 8 12 10 7 5 5 5 6 8 7 5 3 3
20 18 16 14 12 13 11 9 5 8 8 8 8 9 7 8 5 4 5 7 6 6 8 5 9 11 10 6 5 5 5 4 8 6 5 5 5 6 6 6 5 4 2
20 20 18 17 16 15 15 12 11 8 9 9 10 10 9 7 8 8 7 5 6 8 6 7 10 8 9 8 6 6 4 4 2 7 3 3 5 6 5 4 5 4 3
22 22 22 21 20 18 17 15 13 12 11 11 11 11 11 8 8 6 4 3 3 3 5 5 4 7 7 6 4 4 4 5 3 8 4 8 7 6 5 4 4 3 2
24 25 25 24 23 22 17 14 13 12 9 12 11 11 12 10 9 7 5 4 3 1 3 4 5 7 6 6 4 4 3 3 0 1 4 4 6 6 5 5 2 2 3
27 26 27 26 24 17 20 15 11 8 9 15 15 12 12 11 11 9 5 5 5 4 1 5 6 7 6 4 4 4 2 2 4 2 5 7 8 7 8 7 4 3 5
31 29 25 23 19 25 23 24 21 11 29 24 15 12 18 12 13 10 10 8 6 5 7 7 7 7 8 6 5 3 3 3 3 4 7 8 7 7 7 8 12 8 6
24 23 22 20 27 28 25 18 5 15 21 26 16 15 19 15 13 12 11 8 5 3 5 7 7 6 7 7 5 3 4 4 5 7 7 9 7 7 6 12 14 12 10
20 19 19 24 26 25 17 15 15 33 25 22 20 17 17 17 13 13 11 8 4 2 4 4 4 5 5 6 5 5 5 5 7 5 7 9 9 7 7 10 13 11 12
16 21 22 21 23 26 28 15 26 23 29 27 23 20 21 18 14 14 11 10 7 7 5 5 5 6 7 7 6 5 6 7 8 7 9 7 8 9 8 8 11 12 13
19 17 18 17 18 20 23 17 19 25 18 24 22 21 25 20 16 15 12 10 7 7 7 5 4 3 2 2 3 5 6 9 10 10 8 7 10 9 10 5 6 11 10
Wind_Direction
248 271 278 284 269 284 285 279 270 275 265 261 261 237 230 243 230 248 247 267 279 298 304 349 272 199 195 191 200 212 212 210 213 215 214 210 207 199 194 198 195 186 181
261 276 318 318 321 296 291 285 272 261 258 256 253 247 251 258 247 244 266 265 271 293 351 47 70 170 202 209 208 213 215 216 214 218 218 219 208 198 202 200 203 198 191
282 304 320 326 298 308 296 295 270 256 245 250 252 238 248 270 227 270 279 247 262 306 300 48 67 152 199 205 208 222 228 226 223 222 221 222 217 208 210 209 199 198 196
280 301 313 314 303 315 313 298 253 235 217 220 209 249 267 231 230 225 250 128 244 253 250 227 243 232 229 215 218 222 223 220 224 226 225 221 219 216 216 216 205 204 204
282 288 291 308 327 332 336 321 191 185 190 197 209 215 232 207 189 203 197 180 184 202 226 282 256 237 238 231 222 223 231 233 237 229 226 227 226 224 221 220 220 216 214
291 289 285 310 339 340 343 122 134 156 146 166 176 224 196 218 210 183 190 190 202 210 209 151 143 221 228 224 226 232 233 239 234 238 238 234 228 226 225 222 223 223 223
291 304 278 319 355 5 86 112 137 151 162 182 179 178 131 135 146 90 121 184 151 149 172 122 84 139 357 195 212 222 232 238 245 246 249 273 243 225 228 226 226 226 226
306 285 296 313 345 4 81 110 124 147 152 191 117 136 136 136 124 119 165 128 119 127 121 116 113 102 105 87 60 82 238 249 260 262 259 272 277 228 226 229 229 226 227
331 285 311 320 341 107 24 133 123 182 150 195 172 177 165 168 144 89 90 107 124 114 143 122 145 112 120 96 66 81 145 181 254 273 277 282 324 232 224 229 229 224 227
295 293 322 336 355 173 210 283 323 302 100 329 293 270 214 160 227 155 134 130 130 155 165 166 141 120 116 119 180 136 348 322 302 288 280 286 275 251 228 259 224 224 228
244 263 305 351 276 110 273 227 307 293 298 220 282 292 257 232 197 231 161 186 169 167 174 184 162 170 147 128 253 254 348 347 334 325 315 295 277 261 267 230 222 227 226
228 237 263 7 350 222 240 289 247 277 220 212 196 213 249 272 253 221 199 190 208 188 178 179 186 189 159 181 211 302 350 345 333 323 315 306 298 279 285 288 230 264 218
233 252 256 330 301 249 230 210 258 237 241 212 203 234 244 251 249 243 224 211 232 215 197 199 185 197 188 179 264 311 333 331 328 325 321 318 316 313 284 273 280 274 219
240 241 245 246 254 285 268 264 234 207 261 240 236 220 227 238 248 239 250 234 216 231 233 218 198 209 200 215 268 310 331 334 331 328 324 324 325 321 317 307 296 276 264
233 245 248 252 250 266 278 298 224 273 248 258 277 261 243 265 270 270 257 241 249 240 218 219 225 211 227 240 259 282 320 324 319 316 307 310 317 324 323 317 313 288 243
238 243 249 254 261 265 271 273 257 267 268 268 265 280 271 270 278 274 270 256 246 248 250 200 212 219 229 245 252 273 312 329 321 315 318 320 320 326 334 332 318 323 264
245 247 251 254 260 261 264 263 253 270 264 264 268 266 273 292 271 281 273 253 238 233 235 214 210 223 227 203 220 276 316 329 307 312 302 313 325 337 346 349 340 319 283
243 247 251 255 256 254 255 258 256 270 260 259 267 270 279 285 271 262 269 263 227 220 216 207 207 226 201 202 236 291 319 294 289 311 319 311 318 322 332 352 350 329 328
244 249 250 254 259 257 252 248 247 251 241 242 257 261 266 259 256 242 246 254 247 241 218 207 214 198 207 207 256 271 316 291 355 301 353 355 337 339 332 312 321 323 314
248 250 254 255 255 254 243 236 232 243 244 248 255 246 252 255 244 232 234 238 234 122 199 187 211 212 208 224 223 253 294 322 295 297 307 281 330 345 357 2 343 313 267
252 254 254 254 250 237 233 227 208 199 254 252 254 264 250 240 241 234 213 195 217 203 159 227 228 223 218 235 234 251 255 279 295 291 299 298 293 309 298 316 290 273 278
254 253 251 247 235 226 236 227 232 266 274 231 227 267 242 241 243 226 214 210 217 217 205 217 231 227 212 221 229 237 254 277 290 254 317 318 295 278 264 262 250 280 270
250 248 242 233 233 238 237 243 142 321 294 245 238 246 236 238 230 222 211 208 219 229 214 199 203 207 204 200 223 243 241 264 271 277 317 322 304 292 274 268 260 272 273
247 240 234 234 236 225 170 87 18 313 299 257 231 244 232 223 223 214 204 210 205 224 171 146 176 223 221 228 228 243 247 272 295 274 296 324 319 299 280 267 281 277 273
231 227 232 230 226 197 162 170 308 276 277 247 236 244 231 219 222 207 199 189 200 188 213 209 222 239 245 244 234 236 272 284 294 288 295 331 327 309 295 281 289 288 297
229 236 234 238 225 216 191 313 266 236 232 238 232 237 228 215 219 207 197 196 202 200 187 204 186 182 179 192 232 264 279 290 297 299 274 311 319 310 315 256 271 297 315